Weather History for KNBT - February, 2013

Change the Weather History Date:

Monday, February 11, 2013

  Actual Average (KMRH) Record (KMRH)
Temperature  
Mean Temperature 58 °F -  
Max Temperature 66 °F 56 °F 73 °F (1965)
Min Temperature 50 °F 33 °F 14 °F (1968)
Degree Days  
Heating Degree Days 7    
Growing Degree Days 8 (Base 50)    
Moisture  
Dew Point 57 °F    
Average Humidity 87    
Maximum Humidity 100    
Minimum Humidity 75    
Precipitation  
Precipitation 0.13 in - - ()
Sea Level Pressure  
Sea Level Pressure 30.07 in    
Wind  
Wind Speed 13 mph (SSW)    
Max Wind Speed 22 mph    
Max Gust Speed 32 mph    
Visibility 8 miles    
Events Rain    
Averages and records for this station are not official NWS values.
T = Trace of Precipitation, MM = Missing Value Source: NWS Daily Summary

Daily Weather History Graph

Daily Weather History Graph

Search for Another Location

Airport or City:

Trip Planner

Search our weather history database for the weather conditions in past years. The results will help you decide how hot, cold, wet, or windy it might be!

Date:

Astronomy

Feb. 11, 2013 Rise Set
Actual Time 6:55 AM EST 5:44 PM EST
Civil Twilight 6:29 AM EST 6:11 PM EST
Nautical Twilight 5:59 AM EST 6:40 PM EST
Astronomical Twilight 5:30 AM EST 7:10 PM EST
Moon 7:24 AM EST (2/11) 7:32 PM EST (2/11)
Length of Visible Light 11h 41m
Length of Day
10h 49m
Waxing Crescent, 3% of the Moon is Illuminated
Feb 11
Waxing Crescent
Feb 17
First Quarter
Feb 25
Full
Mar 4
Last Quarter
Mar 11
New

Hourly Weather History & Observations

Time (EST) Temp. Dew Point Humidity Pressure Visibility Wind Dir Wind Speed Gust Speed Precip Events Conditions
12:56 AM 50.0 °F 46.9 °F 89% 30.33 in - East 4.6 mph - N/A   Scattered Clouds
1:56 AM 54.0 °F 48.9 °F 83% 30.26 in - SSE 10.4 mph - N/A   Scattered Clouds
2:56 AM 59.0 °F 52.0 °F 78% 30.24 in - SSE 10.4 mph - 0.00 in   Overcast
3:56 AM 60.1 °F 52.0 °F 75% 30.20 in - South 9.2 mph 20.7 mph N/A   Overcast
4:56 AM 60.1 °F 53.1 °F 78% 30.19 in - South 9.2 mph - N/A   Overcast
5:56 AM 61.0 °F 54.0 °F 78% 30.17 in - South 12.7 mph - 0.00 in Rain Light Rain
6:56 AM 62.1 °F 55.9 °F 80% 30.17 in - South 11.5 mph - 0.00 in Rain Light Rain
7:56 AM 63.0 °F 55.9 °F 78% 30.17 in 10.0 mi South 10.4 mph - 0.00 in   Overcast
8:56 AM 64.0 °F 57.0 °F 78% 30.17 in 10.0 mi SSW 13.8 mph 19.6 mph 0.00 in Rain Light Rain
9:56 AM 64.0 °F 59.0 °F 84% 30.16 in 9.0 mi SSW 13.8 mph - 0.01 in Rain Light Rain
10:56 AM 64.0 °F 60.1 °F 87% 30.15 in 5.0 mi SSW 15.0 mph 23.0 mph 0.01 in Rain Light Rain
11:56 AM 64.0 °F 62.1 °F 93% 30.12 in 7.0 mi SSW 18.4 mph 25.3 mph 0.01 in Rain Light Rain
12:24 PM 62.6 °F 62.6 °F 100% 30.09 in 2.5 mi SSW 17.3 mph 23.0 mph 0.03 in Rain Rain
12:33 PM 62.6 °F 62.6 °F 100% 30.08 in 2.5 mi SSW 15.0 mph - 0.04 in Rain Rain
12:53 PM 62.6 °F - N/A% 30.07 in 3.0 mi SSW 13.8 mph 23.0 mph 0.08 in Rain Light Rain
12:56 PM 63.0 °F - N/A% 30.08 in 4.0 mi SSW 16.1 mph 23.0 mph 0.08 in Rain Light Rain
1:05 PM 62.6 °F - N/A% 30.05 in 5.0 mi SSW 18.4 mph 27.6 mph 0.01 in Rain Light Rain
1:56 PM 64.0 °F - N/A% 30.02 in 7.0 mi SSW 20.7 mph 28.8 mph 0.01 in Rain Light Rain
2:06 PM 64.4 °F - N/A% 30.01 in 7.0 mi SW 18.4 mph 28.8 mph 0.00 in Rain Light Rain
2:24 PM 64.4 °F - N/A% 30.01 in 8.0 mi SW 17.3 mph 26.5 mph 0.00 in Rain Light Rain
2:48 PM 64.4 °F - N/A% 30.03 in 9.0 mi WSW 18.4 mph 31.1 mph 0.01 in Rain Light Rain
2:56 PM 64.9 °F - N/A% 30.04 in 9.0 mi WSW 16.1 mph 31.1 mph 0.01 in Rain Light Rain
3:54 PM 66.2 °F - N/A% 30.02 in 10.0 mi SW 21.9 mph 32.2 mph 0.00 in   Overcast
3:56 PM 66.0 °F - N/A% 30.04 in 10.0 mi SW 19.6 mph 32.2 mph 0.00 in   Overcast
4:03 PM 64.4 °F - N/A% 30.02 in 10.0 mi SW 17.3 mph 28.8 mph N/A   Overcast
4:36 PM 64.4 °F - N/A% 30.01 in 10.0 mi SW 15.0 mph 23.0 mph N/A   Overcast
4:56 PM 64.0 °F - N/A% 30.03 in 10.0 mi SSW 13.8 mph 20.7 mph N/A   Overcast
5:56 PM 61.0 °F 61.0 °F 100% 30.00 in 10.0 mi SSW 16.1 mph - N/A   Clear
6:56 PM 62.1 °F 60.1 °F 93% 29.99 in 10.0 mi SW 16.1 mph 25.3 mph N/A   Clear
7:56 PM 64.0 °F 61.0 °F 90% 30.00 in 10.0 mi SW 16.1 mph 25.3 mph 0.00 in Rain Light Rain
8:56 PM 64.0 °F 60.1 °F 87% 29.96 in 10.0 mi SSW 20.7 mph 26.5 mph 0.00 in   Overcast
9:56 PM 63.0 °F 60.1 °F 90% 29.96 in 10.0 mi WSW 18.4 mph 26.5 mph N/A   Clear
10:31 PM 60.8 °F 57.2 °F 88% 29.96 in 10.0 mi West 15.0 mph 21.9 mph N/A   Mostly Cloudy
10:56 PM 62.1 °F 59.0 °F 90% 29.96 in 10.0 mi WSW 12.7 mph - N/A   Overcast
11:03 PM 62.6 °F 60.8 °F 94% 29.94 in 10.0 mi WSW 12.7 mph - N/A   Overcast
11:56 PM 64.0 °F 60.1 °F 87% 29.96 in 10.0 mi WSW 12.7 mph 23.0 mph N/A   Overcast